Location: Unspecified
(0.0000°N, 0.0000°E)
Time: 19:32:05
(UTC+00:00)

Vanguard 1 - Pass Details

Date: 19 April 2026
Orbit: 654 x 3817 km, 34.2° (Epoch: 18 May)

Event Time Altitude Azimuth Distance (km) Brightness Sun altitude
Rises 01:33:28 0° 306° (NW) 7,946 14.6 -64.1°
Reaches altitude 10° 01:43:17 10° 325° (NW) 6,724 14.2 -61.9°
Maximum altitude 01:54:43 16° 357° (N) 5,588 13.9 -59.2°
Drops below altitude 10° 02:03:57 10° 31° (NNE) 5,349 14.1 -57.1°
Sets 02:10:01 0° 52° (NE) 5,727 14.5 -55.7°
